Voltar ao catálogo

EXPRESS 1

AtivoComunicaçõesGEO
NORAD 23319·PAYLOAD·🇷🇺 Russia

Lançado Oct 13, 1994 de Baikonur Cosmodrome

Loading…

TLE

AtualizadoSource: Space-Track

Época: Sep 14, 2026, 11:54 UTC

1 23319U 94067A   26257.49594111 -.00000217  00000-0  00000-0 0  9991
2 23319  14.5439   1.3243 0006306 244.2431  87.3362  0.99835229116468

Acompanhe EXPRESS 1 em tempo real com AllMySat

Download on the App Store